Location: Albuquerque Trailhead
(34.7934°N, 106.3736°W)
Time: 02:26:46
(UTC+00:00)

NOSS 3-4 (C) - Pass Details

Date: 20 June 2021
Orbit: 868 x 1344 km, 63.4° (Epoch: 26 July)

Event Time Altitude Azimuth Distance (km) Brightness Sun altitude
Exits shadow 11:17:34 - 222° (SW) 2,734 5.2 -6.9°
Reaches altitude 10° 11:18:11 10° 223° (SW) 2,504 5.0 -6.8°
Maximum altitude 11:23:51 61° 304° (WNW) 996 3.5 -5.8°
Drops below altitude 10° 11:29:51 10° 24° (NNE) 2,640 6.8 -4.8°
Sets 11:32:31 0° 28° (NNE) 3,643 7.7 -4.3°
